DW4407 Weather Reports


time (UTC)temp
C
wind
direction
speed
KPH
gust
KPH
rain 1hr
cm
rain 24hr
cm
rain mn
cm
humidity
%
barometer
mb
20260504081507 10 346 0.0 6.4 0.00 0.25 0.25 90 1012.9
20260504044546 13 220 3.2 16.1 0.00 0.23 0.23 90 1011.5
20260504043054 13 269 3.2 16.1 0.00 0.23 0.23 90 1011.5
20260504041548 13 306 3.2 12.9 0.00 0.23 0.23 90 1011.3
20260504040047 13 305 1.6 12.9 0.00 0.23 0.23 90 1011.4
20260504034555 14 251 0.0 8.0 0.00 0.23 0.23 90 1011.1
20260504033044 15 248 1.6 16.1 0.00 0.23 0.23 90 1011.1
20260504031544 15 189 1.6 9.7 0.03 0.23 0.23 89 1011.3
20260504030040 15 318 1.6 14.5 0.03 0.23 0.23 90 1011.4
20260504024545 14 281 1.6 11.3 0.03 0.23 0.23 90 1011.7
20260504023036 14 270 1.6 8.0 0.03 0.23 0.23 91 1011.9
20260504021536 14 318 1.6 9.7 0.00 0.20 0.20 91 1012.2
20260504020037 14 232 1.6 16.1 0.00 0.20 0.20 91 1012.4
20260504014532 13 268 1.6 11.3 0.00 0.20 0.20 91 1012.8
20260504013035 13 271 4.8 14.5 0.00 0.20 0.20 91 1012.8
20260504011529 13 302 1.6 12.9 0.03 0.20 0.20 91 1012.9
20260504010027 13 286 1.6 14.5 0.03 0.20 0.20 90 1013.2
20260504004527 13 222 1.6 11.3 0.03 0.20 0.20 90 1013.2
20260504003026 13 36 3.2 11.3 0.03 0.20 0.20 90 1013.3
20260504001534 13 284 0.0 8.0 0.00 0.18 0.18 90 1013.4
20260504000024 13 263 0.0 6.4 0.00 0.18 0.18 90 1013.6
20260503234524 13 181 1.6 19.3 0.00 0.18 0.18 90 1013.6
20260503233023 13 334 0.0 17.7 0.00 0.18 0.18 90 1013.8
20260503231525 13 319 0.0 8.0 0.00 0.18 0.18 90 1013.8
20260503230037 13 118 0.0 4.8 0.00 0.18 0.18 90 1014.0
20260503224520 13 250 0.0 4.8 0.00 0.18 0.18 90 1013.9
20260503223020 13 263 0.0 8.0 0.03 0.18 0.18 90 1013.9
20260503221521 13 321 0.0 9.7 0.03 0.18 0.18 90 1013.9
20260503220018 13 302 0.0 3.2 0.03 0.20 0.18 90 1013.7
20260503214534 13 132 0.0 11.3 0.03 0.20 0.18 90 1013.7
20260503213016 13 254 0.0 9.7 0.00 0.18 0.15 90 1013.9
20260503211516 13 252 0.0 8.0 0.00 0.18 0.15 90 1013.6
20260503210014 13 128 0.0 3.2 0.00 0.18 0.15 90 1013.5
20260503204513 13 238 0.0 4.8 0.00 0.18 0.15 90 1013.4
20260503203014 13 317 0.0 1.6 0.00 0.18 0.15 90 1013.4
20260503201512 12 261 0.0 0.0 0.03 0.18 0.15 90 1013.4
20260503200013 12 261 0.0 0.0 0.03 0.18 0.15 91 1013.4
20260503194510 12 261 0.0 0.0 0.03 0.18 0.15 91 1013.1
20260503193016 12 261 0.0 6.4 0.03 0.18 0.15 91 1013.2
20260503191522 12 338 0.0 6.4 0.00 0.15 0.13 90 1013.2
20260503190018 12 290 0.0 6.4 0.00 0.15 0.13 90 1013.3
20260503184505 13 280 0.0 4.8 0.00 0.15 0.13 90 1013.5
20260503183003 13 266 0.0 11.3 0.00 0.15 0.13 90 1013.7
20260503181503 13 281 0.0 8.0 0.03 0.15 0.13 90 1013.6
20260503180005 13 267 0.0 11.3 0.03 0.15 0.13 90 1013.7
20260503174602 13 261 1.6 8.0 0.03 0.15 0.13 90 1014.0
20260503173104 13 94 0.0 4.8 0.03 0.15 0.13 90 1014.2
20260503171556 13 355 1.6 6.4 0.00 0.13 0.10 90 1014.3
20260503170106 13 251 0.0 6.4 0.00 0.13 0.10 90 1014.6